Weather History for Aberdeen, SD

Change the Weather History Date:

Friday, January 11, 2013

  Actual Average Record
Temperature  
Mean Temperature 22 °F 12 °F  
Max Temperature 34 °F 22 °F 55 °F (1987)
Min Temperature 9 °F 1 °F -31 °F (1912)
Degree Days  
Heating Degree Days 43 53  
Month to date heating degree days 504 583  
Since 1 July heating degree days 3928 4074  
Cooling Degree Days 0 0  
Month to date cooling degree days 0 0  
Year to date cooling degree days 0 0  
Moisture  
Dew Point 19 °F    
Average Humidity 86    
Maximum Humidity 96    
Minimum Humidity 76    
Precipitation  
Precipitation 0.02 in 0.01 in 0.40 in (1893)
Month to date precipitation 0.02 0.19  
Year to date precipitation 0.02 0.19  
Snow  
Snow 0.50 in - - ()
Month to date snowfall 0.5  
Since 1 July snowfall 14.4  
Snow Depth 1.00 in    
Sea Level Pressure  
Sea Level Pressure 29.50 in    
Wind  
Wind Speed 14 mph (SSE)    
Max Wind Speed 105 mph    
Max Gust Speed 146 mph    
Visibility 2 miles    
Events Fog , Rain , Snow    
T = Trace of Precipitation, MM = Missing Value Source: NWS Daily Summary

Daily Weather History Graph

Daily Weather History Graph

Search for Another Location

Airport:

Trip Planner

Search our weather history database for the weather conditions in past years. The results will help you decide how hot, cold, wet, or windy it might be!

Date:

Astronomy

Jan. 11, 2013 Rise Set
Actual Time 8:11 AM CST 5:12 PM CST
Civil Twilight 7:38 AM CST 5:45 PM CST
Nautical Twilight 7:01 AM CST 6:22 PM CST
Astronomical Twilight 6:25 AM CST 6:58 PM CST
Moon 7:43 AM CST (1/11) 5:34 PM CST (1/11)
Length of Visible Light 10h 07m
Length of Day
9h 00m
Waning Crescent, 0% of the Moon is Illuminated
Jan 11
Waning Crescent
Jan 11
New
Jan 18
First Quarter
Jan 26
Full
Feb 3
Last Quarter

Hourly Weather History & Observations

Time (CST) Temp. Windchill Dew Point Humidity Pressure Visibility Wind Dir Wind Speed Gust Speed Precip Events Conditions
12:05 AM 33.8 °F 23.5 °F 32.0 °F 93% 29.48 in 2.0 mi South 16.1 mph - N/A   Overcast
12:35 AM 33.8 °F 24.3 °F 32.0 °F 93% 29.48 in 3.0 mi South 13.8 mph - N/A   Overcast
12:53 AM 33.1 °F 23.9 °F 32.0 °F 96% 29.51 in 4.0 mi South 12.7 mph - N/A   Overcast
1:39 AM 33.8 °F 25.3 °F 32.0 °F 93% 29.46 in 2.5 mi South 11.5 mph - N/A   Overcast
1:53 AM 33.1 °F 24.9 °F 32.0 °F 96% 29.50 in 2.0 mi South 10.4 mph - N/A   Overcast
2:03 AM 33.8 °F 25.8 °F 32.0 °F 93% 29.47 in 1.8 mi South 10.4 mph - N/A   Overcast
2:39 AM 33.8 °F 26.4 °F 32.0 °F 93% 29.46 in 1.2 mi SSE 9.2 mph - N/A   Overcast
2:53 AM 33.1 °F 24.9 °F 32.0 °F 96% 29.49 in 1.0 mi South 10.4 mph - N/A   Mist
3:53 AM 33.1 °F 25.5 °F 32.0 °F 96% 29.47 in 1.2 mi South 9.2 mph - N/A   Overcast
4:50 AM 33.8 °F 28.6 °F 32.0 °F 93% 29.41 in 0.8 mi South 5.8 mph - N/A   Mist
4:53 AM 33.1 °F 26.1 °F 32.0 °F 96% 29.44 in 0.8 mi South 8.1 mph - N/A   Mist
5:53 AM 33.8 °F 30.8 °F 32.0 °F 93% 29.41 in 0.8 mi South 3.5 mph - N/A   Mist
6:12 AM 33.8 °F 30.8 °F 32.0 °F 93% 29.41 in 1.0 mi SW 3.5 mph - N/A   Mist
6:39 AM 33.8 °F 30.8 °F 32.0 °F 93% 29.43 in 2.0 mi SSW 3.5 mph - N/A   Overcast
6:53 AM 33.1 °F 30.0 °F 32.0 °F 96% 29.46 in 3.0 mi SW 3.5 mph - N/A   Overcast
7:27 AM 33.8 °F - 30.2 °F 87% 29.41 in 2.5 mi Calm Calm - N/A   Overcast
7:53 AM 33.1 °F - 30.9 °F 92% 29.44 in 1.8 mi Calm Calm - N/A   Overcast
8:19 AM 33.8 °F - 32.0 °F 93% 29.42 in 0.8 mi Calm Calm - N/A   Mist
8:40 AM 33.8 °F - 32.0 °F 93% 29.42 in 0.2 mi Calm Calm - N/A Fog Fog
8:53 AM 33.1 °F 28.7 °F 30.9 °F 92% 29.46 in 0.2 mi WNW 4.6 mph - N/A Fog Fog
9:53 AM 33.1 °F 26.9 °F 32.0 °F 96% 29.45 in 0.2 mi NNW 6.9 mph - N/A Fog Fog
10:53 AM 33.1 °F 23.9 °F 32.0 °F 96% 29.46 in 0.5 mi North 12.7 mph - N/A Fog Fog
11:35 AM 33.8 °F 24.8 °F 32.0 °F 93% 29.42 in 1.0 mi North 12.7 mph - N/A   Overcast
11:53 AM 33.1 °F 22.6 °F 32.0 °F 96% 29.46 in 1.2 mi North 16.1 mph - N/A   Overcast
12:01 PM 30.2 °F 18.1 °F 28.4 °F 93% 29.42 in 1.8 mi North 18.4 mph 26.5 mph N/A   Overcast
12:04 PM 30.2 °F 17.8 °F 28.4 °F 93% 29.42 in 2.0 mi North 19.6 mph - 0.00 in Rain Light Freezing Rain
12:53 PM 28.0 °F 14.6 °F 26.1 °F 92% 29.47 in 2.0 mi North 20.7 mph - 0.00 in Rain Light Freezing Rain
1:30 PM 26.6 °F 12.7 °F 24.8 °F 93% 29.42 in 1.8 mi North 20.7 mph 31.1 mph 0.00 in Snow Light Snow
1:53 PM 26.6 °F 13.4 °F 24.8 °F 93% 29.39 in 1.5 mi North 18.4 mph 28.8 mph N/A Snow Light Snow
2:09 PM 24.8 °F 11.1 °F 21.2 °F 86% 29.41 in 2.0 mi North 18.4 mph 29.9 mph 0.00 in Rain Light Freezing Rain
2:45 PM 23.0 °F 7.6 °F 19.4 °F 86% 29.44 in 2.5 mi North 21.9 mph 28.8 mph 0.00 in Rain Light Freezing Rain
2:53 PM 23.0 °F 6.6 °F 19.9 °F 88% 29.48 in 2.5 mi North 25.3 mph 33.4 mph 0.00 in Rain Light Freezing Rain
3:13 PM 21.2 °F - 17.6 °F 86% 29.43 in 1.8 mi North - - 0.00 in Snow Light Snow
3:33 PM 19.4 °F - 17.6 °F 93% 29.46 in 1.8 mi North - - 0.00 in Rain Light Freezing Rain
3:43 PM 19.4 °F -7.5 °F 17.6 °F 93% 29.45 in 2.0 mi SE 79.4 mph 146.1 mph 0.00 in Rain Light Freezing Rain
3:48 PM 19.4 °F - 15.8 °F 86% 29.45 in 1.8 mi North - - 0.00 in Snow Light Snow
3:53 PM 19.9 °F - 17.1 °F 89% 29.51 in 1.8 mi North - - 0.00 in Snow Light Snow
4:51 PM 17.6 °F - 14.0 °F 86% 29.47 in 2.0 mi North - - 0.00 in Snow Light Snow
4:53 PM 18.0 °F - 14.0 °F 84% 29.52 in 2.0 mi North - - 0.00 in Snow Light Snow
5:08 PM 17.6 °F - 14.0 °F 86% 29.48 in 3.0 mi North - - 0.00 in Snow Light Snow
5:26 PM 17.6 °F - 14.0 °F 86% 29.49 in 5.0 mi North - - 0.00 in Rain Light Freezing Rain
5:35 PM 17.6 °F -9.5 °F 12.2 °F 79% 29.49 in 6.0 mi ESE 73.6 mph 120.8 mph 0.00 in Rain Light Freezing Rain
5:37 PM 17.6 °F - 12.2 °F 79% 29.49 in 6.0 mi North - - 0.00 in Rain Light Freezing Rain
5:53 PM 16.0 °F - 12.9 °F 88% 29.54 in 4.0 mi North - - 0.00 in Snow Light Snow
6:31 PM 15.8 °F - 12.2 °F 86% 29.50 in 2.5 mi North - - 0.00 in Snow Light Snow
6:40 PM 15.8 °F - 10.4 °F 79% 29.50 in 3.0 mi North - - 0.00 in Snow Light Snow
6:53 PM 15.1 °F - 10.9 °F 84% 29.57 in 4.0 mi North - - 0.00 in Snow Light Snow
7:04 PM 15.8 °F - 10.4 °F 79% 29.52 in 4.0 mi ESE 104.7 mph 187.6 mph 0.00 in Snow Light Snow
7:24 PM 14.0 °F - 10.4 °F 86% 29.53 in 2.5 mi North - - 0.00 in Snow Light Snow
7:51 PM 14.0 °F - 8.6 °F 79% 29.53 in 1.8 mi North - - 0.00 in Snow Light Snow
7:53 PM 14.0 °F - 9.0 °F 80% 29.59 in 2.0 mi North - - 0.00 in Snow Light Snow
8:30 PM 12.2 °F - 8.6 °F 85% 29.55 in 1.8 mi North - - 0.00 in Snow Light Snow
8:53 PM 12.0 °F - 7.0 °F 80% 29.62 in 1.5 mi North - - 0.00 in Snow Light Snow
9:05 PM 12.2 °F - 6.8 °F 79% 29.57 in 1.2 mi North - - 0.00 in Snow Light Snow
9:46 PM 10.4 °F -11.4 °F 6.8 °F 85% 29.57 in 1.0 mi NNW 28.8 mph 38.0 mph N/A Snow Light Snow
9:53 PM 10.9 °F - 6.1 °F 81% 29.63 in 1.0 mi North - - 0.01 in Snow Light Snow
10:36 PM 10.4 °F - 5.0 °F 79% 29.56 in 1.5 mi North - - 0.01 in Snow Light Snow
10:51 PM 10.4 °F - 5.0 °F 79% 29.57 in 2.5 mi North - - 0.01 in Snow Light Snow
10:53 PM 10.0 °F - 5.0 °F 80% 29.63 in 2.5 mi North - - 0.01 in Snow Light Snow
11:10 PM 10.4 °F - 3.2 °F 73% 29.59 in 3.0 mi North - - 0.00 in Snow Light Snow
11:19 PM 10.4 °F - 3.2 °F 73% 29.59 in 2.5 mi North - - 0.00 in Snow Light Snow
11:23 PM 10.4 °F - 3.2 °F 73% 29.60 in 3.0 mi North - - N/A Snow Light Snow
11:37 PM 8.6 °F - 3.2 °F 79% 29.60 in 2.0 mi North - - 0.00 in Snow Light Snow
11:44 PM 8.6 °F - 3.2 °F 79% 29.61 in 1.8 mi North - - 0.00 in Snow Light Snow
11:53 PM 9.0 °F - 3.0 °F 77% 29.68 in 1.5 mi North - - 0.00 in Snow Light Snow
11:57 PM 8.6 °F - 3.2 °F 79% 29.62 in 1.0 mi North - - 0.00 in Snow Light Snow